Tracking 19476 objects as of 17-Jan-2019
HD Live streaming from Space Station
objects crossing your sky now

NUDT-PHONESAT

Track NUDT-PHONESAT now!
10-day predictions
NUDT-PHONESAT is classified as:


NORAD ID: 40900
Int'l Code: 2015-049B
Perigee: 497.2 km
Apogee: 515.7 km
Inclination: 97.4 °
Period: 94.6 minutes
Semi major axis: 6877 km
RCS: Unknown
Launch date: September 19, 2015
Source: People's Republic of China (PRC)
Launch site: Taiyaun Space Center, China (TSC)

Uplink (MHz):
Downlink (MHz): 437.300
Beacon (MHz):
Mode: 9k6 GFSK
Call sign: BJ1SJ
Status: Inactive

aabbcc
Your satellite tracking list
Your tracking list is empty




NASA's NSSDC Master Catalog

Two Line Element Set (TLE):
1 40900U 15049B   19017.02314708  .00001416  00000-0  64683-4 0  9998
2 40900  97.4396  27.9100 0013462   8.2996  48.5429 15.22155891184433
Source of the keplerian elements: Caltech